EW9902 Weather Reports


time (UTC)temp
C
wind
direction
speed
KPH
gust
KPH
rain 1hr
cm
rain 24hr
cm
rain mn
cm
humidity
%
barometer
mb
20260509173125 25 265 0.0 0.0 0.03 0.08 0.08 91 1010.0
20260509171522 25 209 0.0 0.0 0.00 0.05 0.05 95 1010.0
20260509170033 24 215 0.0 0.0 0.00 0.05 0.05 98 1010.1
20260509164516 24 213 0.0 0.0 0.00 0.08 0.05 99 1010.2
20260509163023 23 286 0.0 0.0 0.00 0.08 0.05 99 1010.2
20260509161514 23 250 0.0 0.0 0.00 0.08 0.05 99 1010.3
20260509160012 23 109 0.0 0.0 0.03 0.08 0.05 99 1010.3
20260509154515 23 207 0.0 0.0 0.05 0.08 0.05 99 1010.3
20260509153005 23 205 0.0 0.0 0.05 0.08 0.05 99 1010.2
20260509151612 22 163 0.0 0.0 0.05 0.08 0.05 99 1009.9
20260509150056 22 163 0.0 0.0 0.03 0.05 0.03 99 1009.8
20260509144551 22 163 0.0 0.0 0.00 0.03 0.00 99 1010.0
20260509143057 22 163 0.0 0.0 0.00 0.03 0.00 99 1010.0
20260509141546 22 162 0.0 0.0 0.00 0.03 0.00 99 1009.8
20260509140038 22 159 0.0 0.0 0.00 0.03 0.00 99 1010.0
20260509134534 22 132 0.0 0.0 0.00 0.03 0.00 99 1009.1
20260509133033 22 173 0.0 0.0 0.00 0.03 0.00 99 1009.4
20260509131529 21 187 0.0 0.0 0.00 0.03 0.00 99 1009.4
20260509130025 21 187 0.0 0.0 0.00 0.03 0.00 98 1009.1
20260509124519 21 187 0.0 0.0 0.00 0.03 0.00 98 1009.2
20260509123018 21 187 0.0 0.0 0.00 0.03 0.00 98 1009.0
20260509121514 21 190 0.0 0.0 0.00 0.03 0.00 98 1009.1
20260509120019 21 190 0.0 0.0 0.00 0.03 0.00 98 1008.9
20260509114505 21 193 0.0 0.0 0.00 0.03 0.00 98 1009.1
20260509113101 21 193 0.0 0.0 0.00 0.03 0.00 98 1009.3
20260509111604 21 202 0.0 0.0 0.00 0.03 0.00 98 1009.1
20260509110053 21 197 0.0 0.0 0.00 0.03 0.00 98 1009.5
20260509104605 21 197 0.0 0.0 0.00 0.03 0.00 98 1009.4
20260509103045 21 197 0.0 0.0 0.00 0.03 0.00 98 1009.3
20260509101540 21 196 0.0 0.0 0.00 0.03 0.00 98 1008.9
20260509100034 21 196 0.0 0.0 0.00 0.03 0.00 97 1008.8
20260509094534 21 196 0.0 0.0 0.00 0.03 0.00 97 1009.0
20260509093029 21 196 0.0 0.0 0.00 0.03 0.00 97 1009.3
20260509091530 21 196 0.0 0.0 0.00 0.03 0.00 97 1009.4
20260509090027 21 184 0.0 0.0 0.00 0.03 0.00 97 1009.3
20260509084517 21 161 0.0 0.0 0.00 0.03 0.00 97 1009.7
20260509083016 21 161 0.0 0.0 0.00 0.03 0.00 96 1009.4
20260509081522 21 161 0.0 0.0 0.00 0.03 0.00 96 1009.7
20260509080007 21 161 0.0 0.0 0.00 0.03 0.00 96 1010.1
20260509074503 21 161 0.0 0.0 0.00 0.03 0.00 96 1010.3
20260509073100 21 161 0.0 0.0 0.00 0.03 0.00 96 1010.3
20260509071555 21 161 0.0 0.0 0.00 0.03 0.00 96 1010.2
20260509070054 21 161 0.0 0.0 0.00 0.03 0.00 96 1009.8
20260509064545 21 162 0.0 0.0 0.00 0.03 0.00 96 1009.9
20260509063058 21 162 0.0 0.0 0.00 0.03 0.00 96 1009.8
20260509061601 21 162 0.0 0.0 0.00 0.03 0.00 96 1009.7
20260509060049 21 171 0.0 0.0 0.00 0.03 0.00 95 1009.5
20260509054527 21 192 0.0 1.6 0.00 0.03 0.00 95 1009.2
20260509053023 21 171 0.0 0.0 0.00 0.03 0.00 95 1009.4
20260509051519 21 165 0.0 0.0 0.00 0.03 0.00 95 1009.3
20260509050014 21 162 0.0 6.4 0.00 0.03 0.00 95 1009.6
20260509044514 21 163 0.0 1.6 0.00 0.03 0.03 95 1009.4
20260509043013 21 165 0.0 1.6 0.00 0.03 0.03 95 1009.4
20260509041512 21 182 0.0 0.0 0.00 0.03 0.03 95 1009.5
20260509040012 21 148 0.0 0.0 0.00 0.03 0.03 95 1009.3
20260509034512 21 155 0.0 0.0 0.00 0.03 0.03 95 1009.1
20260509033015 21 175 0.0 0.0 0.00 0.03 0.03 95 1009.1
20260509031510 21 165 0.0 0.0 0.00 0.03 0.03 95 1009.2
20260509030011 21 151 0.0 0.0 0.00 0.03 0.03 94 1009.0
20260509024515 21 151 0.0 0.0 0.00 0.03 0.03 93 1008.9
20260509023011 21 150 0.0 0.0 0.00 0.03 0.03 91 1008.6
20260509021509 21 150 0.0 0.0 0.00 0.03 0.03 91 1008.4
20260509020017 22 149 0.0 0.0 0.00 0.03 0.03 91 1008.2
20260509014527 22 149 0.0 0.0 0.00 0.03 0.03 90 1008.0
20260509013008 22 149 0.0 0.0 0.00 0.03 0.03 90 1008.1
20260509011507 22 148 0.0 0.0 0.00 0.03 0.03 89 1008.1
20260509010006 23 151 0.0 0.0 0.00 0.03 0.03 87 1007.9
20260509004507 23 144 0.0 0.0 0.00 0.03 0.03 86 1007.9
20260509003005 23 140 0.0 0.0 0.00 0.03 0.03 85 1008.1
20260509001502 23 138 0.0 0.0 0.00 0.03 0.03 84 1008.1
20260509000100 23 163 0.0 0.0 0.00 0.03 0.03 84 1008.5
20260508234559 24 155 0.0 1.6 0.00 0.03 0.03 83 1008.7
20260508233059 24 169 0.0 0.0 0.00 0.03 0.03 83 1008.9
20260508231603 25 150 0.0 0.0 0.00 0.03 0.03 83 1008.8
20260508230059 25 178 0.0 0.0 0.00 0.03 0.03 83 1008.6
20260508224558 25 163 0.0 0.0 0.00 0.03 0.03 81 1008.9
20260508223056 25 148 0.0 0.0 0.00 0.03 0.03 81 1008.9
20260508221558 25 147 0.0 0.0 0.00 0.03 0.03 81 1008.9
20260508220054 25 147 0.0 0.0 0.00 0.03 0.03 80 1009.0
20260508214554 25 125 0.0 0.0 0.00 0.03 0.03 82 1008.8
20260508213053 26 146 0.0 0.0 0.00 0.03 0.03 78 1008.8
20260508211551 26 148 0.0 0.0 0.00 0.03 0.03 78 1009.0
20260508210049 26 175 0.0 0.0 0.00 0.03 0.03 79 1009.2
20260508204549 26 163 0.0 0.0 0.00 0.03 0.03 79 1009.3
20260508203043 25 123 0.0 0.0 0.00 0.03 0.03 81 1009.6
20260508201547 25 238 0.0 0.0 0.00 0.03 0.03 80 1010.0
20260508200039 25 203 0.0 0.0 0.00 0.03 0.03 79 1010.3
20260508194537 25 162 0.0 0.0 0.00 0.03 0.03 78 1010.3
20260508193037 25 175 0.0 0.0 0.00 0.03 0.03 78 1010.6
20260508191537 25 193 0.0 0.0 0.00 0.03 0.03 79 1010.6
20260508190035 24 186 0.0 0.0 0.00 0.03 0.03 80 1010.6
20260508184529 23 12 0.0 0.0 0.00 0.03 0.03 84 1010.6
20260508183020 22 84 0.0 0.0 0.00 0.03 0.03 86 1010.9
20260508181519 21 60 0.0 0.0 0.00 0.03 0.03 87 1011.1
20260508180013 21 114 0.0 0.0 0.00 0.03 0.03 90 1011.6
20260508174508 20 92 0.0 0.0 0.00 0.03 0.03 92 1011.8